User: anonymous   Login
Location: Earls Croome
(52.0667°N, 2.2000°W)
Time: 19:47:43
(UTC+00:00)
Language:

Cosmos 1315 Rocket - Orbit

View from above orbital plane
View from above orbital plane
View from above satellite
View from above satellite

Ground track
Ground track

The orbit data is extracted from the following two-line orbital elements,

1 12904U 81103B   20023.57782334 -.00000063 +00000-0 -59729-5 0  9993
2 12904 081.1771 269.7046 0028388 174.9471 185.2044 15.05752716635602
Epoch (UTC): 23 January 2020 13:52:03
Eccentricity: 0.0028388
inclination: 81.1771°
perigee height: 529 km
apogee height: 569 km
right ascension of ascending node: 269.7046°
argument of perigee: 174.9471°
revolutions per day: 15.05752716
mean anomaly at epoch: 185.2044°
orbit number at epoch: 63560

The dashed part of the orbit path shows where the satellite is in the earth's shadow,  

DLR